WA4BPS Weather Reports


time (UTC)temp
F
wind
direction
speed
knots
gust
knots
rain 1hr
in
rain 24hr
in
rain mn
in
humidity
%
barometer
mb
20260906223951 87 344 3.5 10.4 0.00 0.00 0.00 59 1008.3
20260906223828 87 332 1.7 10.4 0.00 0.00 0.00 59 1008.3
20260906223727 87 330 2.6 10.4 0.00 0.00 0.00 59 1008.3
20260906223646 87 336 2.6 10.4 0.00 0.00 0.00 59 1008.3
20260906223543 87 336 5.2 10.4 0.00 0.00 0.00 58 1008.3
20260906223425 87 357 5.2 7.8 0.00 0.00 0.00 58 1008.3
20260906223325 87 360 2.6 7.8 0.00 0.00 0.00 58 1008.3
20260906223224 87 17 3.5 6.1 0.00 0.00 0.00 59 1008.3
20260906223153 87 18 2.6 6.1 0.00 0.00 0.00 59 1008.3
20260906223050 87 37 0.0 6.1 0.00 0.00 0.00 59 1008.3
20260906222946 87 37 1.7 6.1 0.00 0.00 0.00 59 1008.3
20260906222904 87 360 2.6 6.1 0.00 0.00 0.00 60 1008.3
20260906222742 87 360 3.5 6.1 0.00 0.00 0.00 61 1008.2
20260906222625 87 326 2.6 7.0 0.00 0.00 0.00 61 1008.2
20260906222543 87 323 4.3 7.0 0.00 0.00 0.00 59 1008.2
20260906222441 87 326 3.5 7.0 0.00 0.00 0.00 57 1008.2
20260906222339 87 8 3.5 7.0 0.00 0.00 0.00 59 1008.2
20260906222238 87 16 3.5 7.0 0.00 0.00 0.00 59 1008.2
20260906222137 87 360 4.3 7.0 0.00 0.00 0.00 59 1008.2
20260906222035 87 27 1.7 7.0 0.00 0.00 0.00 59 1008.2
20260906221937 87 28 1.7 8.7 0.00 0.00 0.00 60 1008.2
20260906221835 87 30 2.6 8.7 0.00 0.00 0.00 60 1008.2
20260906221734 87 30 4.3 8.7 0.00 0.00 0.00 59 1008.2
20260906221704 87 7 3.5 8.7 0.00 0.00 0.00 58 1008.2
20260906221602 87 7 4.3 8.7 0.00 0.00 0.00 58 1008.2
20260906221439 87 4 3.5 8.7 0.00 0.00 0.00 58 1008.2
20260906221337 87 6 1.7 8.7 0.00 0.00 0.00 58 1008.2
20260906221241 87 6 5.2 8.7 0.00 0.00 0.00 59 1008.2
20260906221200 87 13 6.1 8.7 0.00 0.00 0.00 60 1008.2
20260906221038 87 4 4.3 6.1 0.00 0.00 0.00 61 1008.2
20260906220956 87 360 2.6 6.1 0.00 0.00 0.00 59 1008.2
20260906220834 87 3 1.7 6.1 0.00 0.00 0.00 59 1008.2
20260906220732 87 3 3.5 6.1 0.00 0.00 0.00 58 1008.2
20260906220630 87 28 3.5 5.2 0.00 0.00 0.00 58 1008.2
20260906220529 87 25 3.5 5.2 0.00 0.00 0.00 58 1008.2
20260906220432 87 25 1.7 5.2 0.00 0.00 0.00 57 1008.2
20260906220350 87 25 2.6 5.2 0.00 0.00 0.00 58 1008.2
20260906220238 87 25 3.5 5.2 0.00 0.00 0.00 58 1008.2
20260906220148 87 25 2.6 5.2 0.00 0.00 0.00 58 1008.2
20260906220026 87 25 3.5 5.2 0.00 0.00 0.00 58 1008.2
20260906215927 87 24 2.6 5.2 0.00 0.00 0.00 59 1008.2
20260906215825 87 25 3.5 5.2 0.00 0.00 0.00 59 1008.2
20260906215727 87 25 2.6 5.2 0.00 0.00 0.00 59 1008.2
20260906215627 87 25 1.7 5.2 0.00 0.00 0.00 60 1008.2
20260906215526 87 25 1.7 5.2 0.00 0.00 0.00 60 1008.2
20260906215444 87 24 2.6 5.2 0.00 0.00 0.00 60 1008.2
20260906215344 87 25 0.9 5.2 0.00 0.00 0.00 59 1008.2
20260906215241 87 25 0.0 5.2 0.00 0.00 0.00 59 1008.2
20260906215139 87 24 0.0 5.2 0.00 0.00 0.00 59 1008.2
20260906215058 87 24 0.0 5.2 0.00 0.00 0.00 59 1008.2
20260906214938 87 25 0.9 6.1 0.00 0.00 0.00 59 1008.2
20260906214837 87 25 1.7 6.1 0.00 0.00 0.00 59 1008.2
20260906214735 87 25 0.9 6.1 0.00 0.00 0.00 58 1008.2
20260906214703 87 25 0.0 6.1 0.00 0.00 0.00 58 1008.2
20260906214540 87 27 1.7 6.1 0.00 0.00 0.00 58 1008.2
20260906214439 87 27 2.6 6.1 0.00 0.00 0.00 58 1008.2
20260906214338 87 25 1.7 6.1 0.00 0.00 0.00 58 1008.2
20260906214241 87 23 2.6 6.1 0.00 0.00 0.00 58 1008.0
20260906214140 87 24 4.3 6.1 0.00 0.00 0.00 56 1008.0
20260906214039 87 18 3.5 6.1 0.00 0.00 0.00 56 1008.0
20260906213937 87 360 2.6 6.1 0.00 0.00 0.00 57 1008.0
20260906213835 88 332 4.3 6.1 0.00 0.00 0.00 56 1008.0
20260906213734 88 326 1.7 5.2 0.00 0.00 0.00 56 1008.0
20260906213636 88 330 0.9 5.2 0.00 0.00 0.00 56 1008.0
20260906213554 88 329 2.6 5.2 0.00 0.00 0.00 57 1008.0
20260906213431 88 328 2.6 5.2 0.00 0.00 0.00 57 1008.0
20260906213350 88 326 3.5 5.2 0.00 0.00 0.00 57 1008.0
20260906213228 88 353 2.6 5.2 0.00 0.00 0.00 56 1008.0
20260906213159 88 352 2.6 5.2 0.00 0.00 0.00 57 1008.0
20260906213035 88 18 2.6 4.3 0.00 0.00 0.00 57 1008.0
20260906212934 88 21 1.7 4.3 0.00 0.00 0.00 57 1008.0
20260906212837 88 23 2.6 6.1 0.00 0.00 0.00 56 1008.0
20260906212735 88 24 1.7 6.1 0.00 0.00 0.00 57 1008.2
20260906212633 88 24 0.0 6.1 0.00 0.00 0.00 57 1008.2
20260906212532 88 24 0.9 6.1 0.00 0.00 0.00 56 1008.2
20260906212430 88 25 2.6 6.1 0.00 0.00 0.00 58 1008.2
20260906212331 88 24 1.7 6.1 0.00 0.00 0.00 57 1008.2
20260906212229 88 23 2.6 6.1 0.00 0.00 0.00 58 1008.2
20260906212131 88 23 3.5 6.1 0.00 0.00 0.00 57 1008.2
20260906212050 88 23 3.5 6.1 0.00 0.00 0.00 57 1008.2
20260906212008 88 25 2.6 6.1 0.00 0.00 0.00 58 1008.2
20260906211904 88 20 2.6 5.2 0.00 0.00 0.00 58 1008.2
20260906211741 88 21 2.6 5.2 0.00 0.00 0.00 58 1008.2
20260906211710 88 21 1.7 6.1 0.00 0.00 0.00 58 1008.2
20260906211527 88 21 3.5 6.1 0.00 0.00 0.00 57 1008.2
20260906211425 88 21 3.5 6.1 0.00 0.00 0.00 57 1008.2
20260906211327 88 24 4.3 6.1 0.00 0.00 0.00 58 1008.2
20260906211225 88 27 2.6 6.1 0.00 0.00 0.00 57 1008.3
20260906211143 88 28 1.7 7.8 0.00 0.00 0.00 57 1008.3
20260906211042 88 27 1.7 7.8 0.00 0.00 0.00 57 1008.3
20260906210939 88 28 1.7 7.8 0.00 0.00 0.00 57 1008.3
20260906210837 88 28 3.5 7.8 0.00 0.00 0.00 57 1008.3
20260906210736 88 27 5.2 8.7 0.00 0.00 0.00 57 1008.3
20260906210654 88 28 3.5 8.7 0.00 0.00 0.00 56 1008.3
20260906210552 88 32 3.5 8.7 0.00 0.00 0.00 58 1008.3
20260906210433 88 31 5.2 8.7 0.00 0.00 0.00 57 1008.3
20260906210331 88 51 6.1 8.7 0.00 0.00 0.00 58 1008.3
20260906210250 88 41 6.1 8.7 0.00 0.00 0.00 58 1008.3
20260906210159 88 35 5.2 8.7 0.00 0.00 0.00 59 1008.3
20260906210036 88 1 4.3 8.7 0.00 0.00 0.00 59 1008.3
20260906205934 88 21 5.2 8.7 0.00 0.00 0.00 58 1008.3
20260906205832 88 11 5.2 8.7 0.00 0.00 0.00 58 1008.3
20260906205751 88 16 2.6 6.1 0.00 0.00 0.00 58 1008.3
20260906205632 88 14 0.0 6.1 0.00 0.00 0.00 59 1008.3
20260906205531 88 16 2.6 6.1 0.00 0.00 0.00 57 1008.3
20260906205429 88 16 0.9 6.1 0.00 0.00 0.00 57 1008.3
20260906205328 88 16 0.0 6.1 0.00 0.00 0.00 57 1008.3
20260906205229 88 17 0.9 6.1 0.00 0.00 0.00 56 1008.3
20260906205127 88 17 2.6 6.1 0.00 0.00 0.00 57 1008.3
20260906205030 88 18 2.6 6.1 0.00 0.00 0.00 58 1008.3
20260906204949 88 16 5.2 6.1 0.00 0.00 0.00 59 1008.3
20260906204827 88 18 1.7 6.1 0.00 0.00 0.00 59 1008.3
20260906204725 88 20 0.0 6.1 0.00 0.00 0.00 59 1008.3
20260906204656 88 20 0.9 6.1 0.00 0.00 0.00 58 1008.3
20260906204533 88 20 1.7 6.1 0.00 0.00 0.00 58 1008.3
20260906204453 88 21 1.7 6.1 0.00 0.00 0.00 58 1008.3
20260906204332 88 17 5.2 6.1 0.00 0.00 0.00 57 1008.3
20260906204234 88 31 3.5 6.1 0.00 0.00 0.00 56 1008.4
20260906204133 88 21 2.6 6.1 0.00 0.00 0.00 56 1008.4
20260906204031 88 23 2.6 6.1 0.00 0.00 0.00 56 1008.4
20260906203950 88 24 4.3 6.1 0.00 0.00 0.00 56 1008.4
20260906203827 88 23 2.6 6.1 0.00 0.00 0.00 56 1008.4
20260906203725 88 21 1.7 6.1 0.00 0.00 0.00 58 1008.4
20260906203643 88 18 1.7 6.1 0.00 0.00 0.00 57 1008.4
20260906203526 88 30 4.3 6.1 0.00 0.00 0.00 57 1008.4
20260906203425 88 357 3.5 6.1 0.00 0.00 0.00 58 1008.4
20260906203344 88 354 2.6 6.1 0.00 0.00 0.00 57 1008.4
20260906203301 88 1 3.5 6.1 0.00 0.00 0.00 56 1008.4
20260906203212 88 4 2.6 6.1 0.00 0.00 0.00 58 1008.4
20260906203028 88 18 4.3 6.1 0.00 0.00 0.00 59 1008.4
20260906202946 88 360 2.6 7.0 0.00 0.00 0.00 58 1008.4
20260906202824 88 323 4.3 7.0 0.00 0.00 0.00 59 1008.4
20260906202742 88 359 4.3 7.0 0.00 0.00 0.00 59 1008.5
20260906202625 88 30 3.5 7.0 0.00 0.00 0.00 59 1008.5
20260906202543 88 31 3.5 7.0 0.00 0.00 0.00 58 1008.5
20260906202441 88 16 2.6 7.0 0.00 0.00 0.00 58 1008.5
20260906202400 88 7 1.7 7.0 0.00 0.00 0.00 59 1008.5
20260906202238 88 16 0.9 7.0 0.00 0.00 0.00 59 1008.5
20260906202137 88 16 4.3 7.0 0.00 0.00 0.00 59 1008.5
20260906202036 88 13 4.3 7.0 0.00 0.00 0.00 59 1008.5
20260906201954 88 37 1.7 5.2 0.00 0.00 0.00 58 1008.5
20260906201835 88 38 3.5 7.0 0.00 0.00 0.00 58 1008.5
20260906201732 88 41 2.6 7.0 0.00 0.00 0.00 59 1008.5
20260906201702 88 42 0.9 7.0 0.00 0.00 0.00 59 1008.5
20260906201541 88 42 1.7 7.0 0.00 0.00 0.00 58 1008.5
20260906201439 88 47 0.9 8.7 0.00 0.00 0.00 58 1008.5
20260906201339 88 49 1.7 8.7 0.00 0.00 0.00 58 1008.5
20260906201238 88 51 2.6 8.7 0.00 0.00 0.00 59 1008.8
20260906201156 88 51 3.5 8.7 0.00 0.00 0.00 59 1008.8
20260906201037 88 52 4.3 8.7 0.00 0.00 0.00 57 1008.8
20260906200935 88 40 4.3 8.7 0.00 0.00 0.00 57 1008.8
20260906200833 88 34 5.2 8.7 0.00 0.00 0.00 58 1008.8
20260906200734 88 32 4.3 8.7 0.00 0.00 0.00 58 1008.8
20260906200633 88 31 6.1 8.7 0.00 0.00 0.00 58 1008.8
20260906200551 88 14 6.1 8.7 0.00 0.00 0.00 60 1008.8
20260906200451 88 27 5.2 8.7 0.00 0.00 0.00 59 1008.8
20260906200333 88 11 2.6 8.7 0.00 0.00 0.00 59 1008.8
20260906200231 88 6 2.6 8.7 0.00 0.00 0.00 59 1008.8
20260906200203 88 7 3.5 8.7 0.00 0.00 0.00 59 1008.8
20260906200039 88 360 2.6 8.7 0.00 0.00 0.00 58 1008.8
20260906195938 88 325 3.5 8.7 0.00 0.00 0.00 59 1008.8
20260906195836 88 360 1.7 8.7 0.00 0.00 0.00 59 1008.8
20260906195735 88 40 3.5 8.7 0.00 0.00 0.00 58 1009.1
20260906195637 88 1 6.1 8.7 0.00 0.00 0.00 58 1009.1
20260906195535 88 20 5.2 8.7 0.00 0.00 0.00 58 1009.1
20260906195435 88 23 2.6 6.1 0.00 0.00 0.00 59 1009.1
20260906195354 88 23 2.6 6.1 0.00 0.00 0.00 59 1009.1
20260906195231 87 21 3.5 8.7 0.00 0.00 0.00 59 1009.1
20260906195149 87 30 4.3 8.7 0.00 0.00 0.00 60 1009.1
20260906195028 87 14 0.9 8.7 0.00 0.00 0.00 59 1009.1
20260906194926 87 17 2.6 8.7 0.00 0.00 0.00 59 1009.1
20260906194829 87 21 3.5 8.7 0.00 0.00 0.00 59 1009.1
20260906194726 87 20 4.3 8.7 0.00 0.00 0.00 60 1009.1
20260906194656 87 32 4.3 8.7 0.00 0.00 0.00 59 1009.1
20260906194533 87 71 4.3 8.7 0.00 0.00 0.00 59 1009.1
20260906194452 88 24 5.2 8.7 0.00 0.00 0.00 60 1009.1
20260906194329 88 7 2.6 7.8 0.00 0.00 0.00 59 1009.1
20260906194227 88 23 4.3 7.8 0.00 0.00 0.00 59 1009.4
20260906194130 88 8 3.5 7.8 0.00 0.00 0.00 58 1009.4
20260906194028 88 4 1.7 8.7 0.00 0.00 0.00 57 1009.4
20260906193929 88 6 3.5 8.7 0.00 0.00 0.00 57 1009.4
20260906193848 88 7 4.3 8.7 0.00 0.00 0.00 59 1009.4
20260906193806 88 10 5.2 8.7 0.00 0.00 0.00 60 1009.4
20260906193704 88 16 5.2 8.7 0.00 0.00 0.00 59 1009.4
20260906193601 88 32 3.5 8.7 0.00 0.00 0.00 58 1009.4
20260906193440 88 30 5.2 8.7 0.00 0.00 0.00 59 1009.4
20260906193324 87 32 5.2 8.7 0.00 0.00 0.00 59 1009.4
20260906192925 87 30 3.5 8.7 0.00 0.00 0.00 59 1009.4
20260906192843 87 24 4.3 9.6 0.00 0.00 0.00 59 1009.4
20260906192727 87 18 3.5 9.6 0.00 0.00 0.00 60 1009.6
20260906192624 87 37 5.2 9.6 0.00 0.00 0.00 59 1009.6
20260906192542 87 24 5.2 9.6 0.00 0.00 0.00 61 1009.6
20260906192501 87 41 6.1 9.6 0.00 0.00 0.00 59 1009.6
20260906192359 87 20 6.1 9.6 0.00 0.00 0.00 59 1009.6
20260906192235 87 326 4.3 9.6 0.00 0.00 0.00 59 1009.6
20260906192133 87 10 2.6 9.6 0.00 0.00 0.00 58 1009.6
20260906192033 87 3 4.3 9.6 0.00 0.00 0.00 58 1009.6
20260906191936 87 16 6.1 9.6 0.00 0.00 0.00 58 1009.6
20260906191854 87 325 5.2 9.6 0.00 0.00 0.00 59 1009.6
20260906191731 87 325 4.3 9.6 0.00 0.00 0.00 59 1009.6
20260906191701 87 325 4.3 9.6 0.00 0.00 0.00 59 1009.6
20260906191539 87 4 4.3 9.6 0.00 0.00 0.00 58 1009.6
20260906191438 87 27 6.1 9.6 0.00 0.00 0.00 59 1009.6
20260906191336 87 7 4.3 7.8 0.00 0.00 0.00 59 1009.6
20260906191238 87 335 4.3 7.8 0.00 0.00 0.00 59 1009.8
20260906191136 87 342 4.3 9.6 0.00 0.00 0.00 59 1009.8
20260906191033 87 325 3.5 9.6 0.00 0.00 0.00 60 1009.8
20260906190932 88 18 1.7 9.6 0.00 0.00 0.00 58 1009.8
20260906190831 88 18 3.5 9.6 0.00 0.00 0.00 58 1009.8
20260906190749 88 41 1.7 9.6 0.00 0.00 0.00 58 1009.8
20260906190627 88 52 6.1 9.6 0.00 0.00 0.00 58 1009.8
20260906190527 88 40 5.2 9.6 0.00 0.00 0.00 58 1009.8
20260906190429 88 28 4.3 9.6 0.00 0.00 0.00 58 1009.8
20260906190328 88 24 7.8 9.6 0.00 0.00 0.00 59 1009.8
20260906190238 88 27 6.1 7.0 0.00 0.00 0.00 60 1009.8
20260906190148 87 49 3.5 7.0 0.00 0.00 0.00 59 1009.8
20260906190044 87 30 2.6 6.1 0.00 0.00 0.00 59 1009.8
20260906185943 87 31 3.5 6.1 0.00 0.00 0.00 59 1009.8
20260906185841 87 21 2.6 7.8 0.00 0.00 0.00 58 1009.8
20260906185743 87 20 3.5 7.8 0.00 0.00 0.00 58 1009.8
20260906185643 87 20 3.5 7.8 0.00 0.00 0.00 58 1009.8
20260906185542 87 42 4.3 7.8 0.00 0.00 0.00 57 1009.8
20260906185437 88 27 4.3 7.8 0.00 0.00 0.00 58 1009.8
20260906185356 88 24 3.5 7.8 0.00 0.00 0.00 57 1009.8
20260906185233 88 23 5.2 7.8 0.00 0.00 0.00 57 1009.8
20260906185131 88 14 4.3 7.8 0.00 0.00 0.00 58 1009.8
20260906185030 88 42 5.2 8.7 0.00 0.00 0.00 57 1009.8
20260906184938 88 38 5.2 8.7 0.00 0.00 0.00 59 1009.8
20260906184857 88 38 4.3 8.7 0.00 0.00 0.00 58 1009.8
20260906184733 88 34 4.3 8.7 0.00 0.00 0.00 58 1009.8
20260906184703 88 32 2.6 8.7 0.00 0.00 0.00 59 1009.8
20260906184540 88 31 1.7 8.7 0.00 0.00 0.00 59 1009.8
20260906184442 88 34 1.7 8.7 0.00 0.00 0.00 59 1009.8
20260906184340 88 32 3.5 10.4 0.00 0.00 0.00 58 1009.8
20260906184224 87 31 4.3 10.4 0.00 0.00 0.00 58 1010.1
20260906184143 88 21 3.5 10.4 0.00 0.00 0.00 60 1010.1
20260906184040 87 31 4.3 10.4 0.00 0.00 0.00 59 1010.1
20260906183937 87 23 4.3 10.4 0.00 0.00 0.00 58 1010.1
20260906183856 87 24 5.2 10.4 0.00 0.00 0.00 59 1010.1
20260906183756 87 30 4.3 10.4 0.00 0.00 0.00 59 1010.1
20260906183632 87 59 4.3 10.4 0.00 0.00 0.00 58 1010.1
20260906183531 87 68 7.0 10.4 0.00 0.00 0.00 59 1010.1
20260906183428 87 31 4.3 10.4 0.00 0.00 0.00 58 1010.1
20260906183331 87 48 2.6 10.4 0.00 0.00 0.00 58 1010.1
20260906183301 87 47 4.3 10.4 0.00 0.00 0.00 58 1010.1
20260906183149 87 49 4.3 10.4 0.00 0.00 0.00 58 1010.1
20260906183046 87 16 4.3 10.4 0.00 0.00 0.00 59 1010.1
20260906182943 88 14 6.1 10.4 0.00 0.00 0.00 59 1010.1
20260906182841 87 28 7.0 10.4 0.00 0.00 0.00 58 1010.1
20260906182740 87 38 6.1 10.4 0.00 0.00 0.00 58 1010.3
20260906182637 87 37 4.3 7.8 0.00 0.00 0.00 58 1010.3
20260906182541 87 31 5.2 7.8 0.00 0.00 0.00 59 1010.3
20260906182438 87 41 5.2 8.7 0.00 0.00 0.00 58 1010.3
20260906182337 87 41 5.2 8.7 0.00 0.00 0.00 58 1010.3
20260906182236 87 35 4.3 8.7 0.00 0.00 0.00 59 1010.3
20260906182134 87 30 5.2 8.7 0.00 0.00 0.00 58 1010.3
20260906182033 87 41 5.2 8.7 0.00 0.00 0.00 59 1010.3
20260906181952 87 27 5.2 8.7 0.00 0.00 0.00 63 1010.3
20260906181849 87 40 5.2 8.7 0.00 0.00 0.00 61 1010.3
20260906181731 87 61 5.2 8.7 0.00 0.00 0.00 60 1010.3
20260906181700 87 52 5.2 8.7 0.00 0.00 0.00 59 1010.3
20260906181539 87 27 7.0 8.7 0.00 0.00 0.00 60 1010.3
20260906181436 87 23 4.3 9.6 0.00 0.00 0.00 60 1010.3
20260906181335 87 41 1.7 9.6 0.00 0.00 0.00 61 1010.3
20260906181253 87 41 4.3 9.6 0.00 0.00 0.00 59 1010.4
20260906181150 87 21 5.2 9.6 0.00 0.00 0.00 59 1010.4
20260906181027 87 24 5.2 9.6 0.00 0.00 0.00 58 1010.4
20260906180930 87 42 5.2 9.6 0.00 0.00 0.00 58 1010.4
20260906180829 87 32 5.2 9.6 0.00 0.00 0.00 58 1010.4
20260906180728 87 31 5.2 11.3 0.00 0.00 0.00 59 1010.4
20260906180646 87 32 7.0 11.3 0.00 0.00 0.00 58 1010.4
20260906180542 87 31 4.3 11.3 0.00 0.00 0.00 59 1010.4
20260906180441 87 16 3.5 11.3 0.00 0.00 0.00 59 1010.4
20260906180339 87 17 5.2 11.3 0.00 0.00 0.00 60 1010.4
20260906180257 87 325 4.3 11.3 0.00 0.00 0.00 60 1010.4
20260906180210 87 17 2.6 11.3 0.00 0.00 0.00 59 1010.4
20260906180026 87 17 1.7 11.3 0.00 0.00 0.00 59 1010.4
20260906175925 87 23 7.0 11.3 0.00 0.00 0.00 61 1010.4
20260906175825 87 354 0.9 7.0 0.00 0.00 0.00 61 1010.4
20260906175723 87 20 4.3 7.0 0.00 0.00 0.00 60 1010.7
20260906175645 87 31 3.5 7.0 0.00 0.00 0.00 60 1010.7
20260906175541 87 10 0.9 7.0 0.00 0.00 0.00 62 1010.7
20260906175439 87 8 1.7 7.0 0.00 0.00 0.00 59 1010.7
20260906175341 87 8 2.6 7.0 0.00 0.00 0.00 60 1010.7
20260906175239 87 7 4.3 7.0 0.00 0.00 0.00 59 1010.7
20260906175136 86 1 5.2 7.0 0.00 0.00 0.00 59 1010.7
20260906175034 86 25 3.5 7.0 0.00 0.00 0.00 59 1010.7
20260906174953 86 23 5.2 6.1 0.00 0.00 0.00 60 1010.7
20260906174829 86 30 5.2 6.1 0.00 0.00 0.00 59 1010.7
20260906174728 86 32 3.5 6.1 0.00 0.00 0.00 60 1010.7
20260906174703 86 35 0.9 6.1 0.00 0.00 0.00 60 1010.7
20260906174540 86 20 0.0 6.1 0.00 0.00 0.00 60 1010.7
20260906174459 86 23 0.9 6.1 0.00 0.00 0.00 60 1010.7
20260906174336 86 23 4.3 6.1 0.00 0.00 0.00 59 1010.7
20260906174233 86 38 3.5 6.1 0.00 0.00 0.00 59 1010.6
20260906174131 86 37 2.6 6.1 0.00 0.00 0.00 62 1010.6
20260906174030 86 45 4.3 6.1 0.00 0.00 0.00 61 1010.6
20260906173949 86 31 3.5 6.1 0.00 0.00 0.00 60 1010.6
20260906173830 86 28 2.6 5.2 0.00 0.00 0.00 60 1010.6
20260906173728 86 27 0.0 4.3 0.00 0.00 0.00 61 1010.6
20260906173627 86 24 0.9 4.3 0.00 0.00 0.00 60 1010.6
20260906173526 86 23 3.5 4.3 0.00 0.00 0.00 62 1010.6
20260906173424 86 25 0.9 4.3 0.00 0.00 0.00 63 1010.6
20260906173343 86 25 0.9 4.3 0.00 0.00 0.00 62 1010.6
20260906173252 86 27 2.6 4.3 0.00 0.00 0.00 62 1010.6
20260906173145 86 24 0.9 4.3 0.00 0.00 0.00 61 1010.6
20260906173041 86 27 0.9 5.2 0.00 0.00 0.00 59 1010.6
20260906172940 86 25 0.0 5.2 0.00 0.00 0.00 60 1010.6
20260906172839 86 25 1.7 5.2 0.00 0.00 0.00 61 1010.6
20260906172735 86 24 0.9 5.2 0.00 0.00 0.00 62 1010.9
20260906172633 86 27 0.0 5.2 0.00 0.00 0.00 65 1010.9
20260906172532 86 27 0.9 5.2 0.00 0.00 0.00 64 1010.9
20260906172431 86 28 1.7 5.2 0.00 0.00 0.00 62 1010.9
20260906172333 85 38 0.9 5.2 0.00 0.00 0.00 63 1010.9
20260906172232 85 38 4.3 5.2 0.00 0.00 0.00 61 1010.9
20260906172131 85 40 2.6 5.2 0.00 0.00 0.00 62 1010.9
20260906172028 85 35 2.6 5.2 0.00 0.00 0.00 62 1010.9
20260906171926 85 34 0.9 5.2 0.00 0.00 0.00 61 1010.9
20260906171825 85 34 1.7 5.2 0.00 0.00 0.00 62 1010.9
20260906171738 85 28 3.5 5.2 0.00 0.00 0.00 62 1010.9
20260906171650 85 31 3.5 5.2 0.00 0.00 0.00 61 1010.9
20260906171527 85 32 0.9 5.2 0.00 0.00 0.00 65 1010.9
20260906171445 85 31 0.0 6.1 0.00 0.00 0.00 65 1010.9
20260906171343 85 32 0.9 6.1 0.00 0.00 0.00 64 1010.9
20260906171241 85 32 0.9 6.1 0.00 0.00 0.00 65 1010.6
20260906171157 85 360 0.9 6.1 0.00 0.00 0.00 63 1010.6
20260906171033 85 360 0.9 6.1 0.00 0.00 0.00 63 1010.6
20260906170952 85 360 1.7 6.1 0.00 0.00 0.00 62 1010.6
20260906170834 85 359 2.6 6.1 0.00 0.00 0.00 64 1010.6
20260906170732 85 360 1.7 6.1 0.00 0.00 0.00 63 1010.6
20260906170631 85 343 4.3 6.1 0.00 0.00 0.00 64 1010.6
20260906170530 85 360 2.6 6.1 0.00 0.00 0.00 65 1010.6
20260906170429 85 343 5.2 6.1 0.00 0.00 0.00 64 1010.6
20260906170327 85 10 2.6 4.3 0.00 0.00 0.00 64 1010.6
20260906170225 85 16 0.0 4.3 0.00 0.00 0.00 65 1010.6
20260906170159 85 13 0.0 4.3 0.00 0.00 0.00 65 1010.6
20260906170056 85 17 0.0 4.3 0.00 0.00 0.00 64 1010.6
20260906165933 84 16 0.9 4.3 0.00 0.00 0.00 63 1010.6
20260906165852 84 18 0.9 5.2 0.00 0.00 0.00 63 1010.6
20260906165728 84 16 0.0 5.2 0.00 0.00 0.00 64 1010.6
20260906165628 84 14 0.0 5.2 0.00 0.00 0.00 66 1010.6
20260906165529 84 14 0.0 5.2 0.00 0.00 0.00 64 1010.6
20260906165427 84 16 0.0 5.2 0.00 0.00 0.00 63 1010.6
20260906165329 84 16 0.9 5.2 0.00 0.00 0.00 65 1010.6
20260906165226 84 16 0.0 5.2 0.00 0.00 0.00 65 1010.6
20260906165145 84 17 0.0 5.2 0.00 0.00 0.00 63 1010.6
20260906165105 84 16 1.7 6.1 0.00 0.00 0.00 65 1010.6
20260906164941 84 17 2.6 6.1 0.00 0.00 0.00 65 1010.6
20260906164841 84 326 3.5 6.1 0.00 0.00 0.00 64 1010.6
20260906164739 84 354 1.7 6.1 0.00 0.00 0.00 65 1010.6
20260906164710 84 319 0.0 6.1 0.00 0.00 0.00 65 1010.6
20260906164526 84 315 0.0 6.1 0.00 0.00 0.00 66 1010.6
20260906164431 84 315 0.0 6.1 0.00 0.00 0.00 68 1010.6
20260906164329 84 315 1.7 6.1 0.00 0.00 0.00 69 1010.6
20260906164227 84 316 1.7 6.1 0.00 0.00 0.00 69 1010.8
20260906164146 84 313 0.0 4.3 0.00 0.00 0.00 69 1010.8
20260906164104 83 313 0.0 4.3 0.00 0.00 0.00 69 1010.8
20260906163941 83 311 0.0 4.3 0.00 0.00 0.00 68 1010.8
20260906163858 83 312 0.0 4.3 0.00 0.00 0.00 68 1010.8
20260906163735 83 311 0.0 4.3 0.00 0.00 0.00 69 1010.8
20260906163638 83 311 0.0 4.3 0.00 0.00 0.00 68 1010.8
20260906163536 83 312 0.0 4.3 0.00 0.00 0.00 69 1010.8
20260906163434 83 309 0.9 5.2 0.00 0.00 0.00 70 1010.8
20260906163333 83 313 0.9 5.2 0.00 0.00 0.00 71 1010.8
20260906163232 83 313 0.0 5.2 0.00 0.00 0.00 70 1010.8
20260906163203 83 313 0.9 5.2 0.00 0.00 0.00 70 1010.8
20260906163039 83 306 1.7 5.2 0.00 0.00 0.00 70 1010.8
20260906162941 83 304 0.9 5.2 0.00 0.00 0.00 71 1010.8
20260906162841 83 329 1.7 5.2 0.00 0.00 0.00 70 1010.8
20260906162740 83 330 2.6 5.2 0.00 0.00 0.00 70 1011.1
20260906162638 83 336 1.7 5.2 0.00 0.00 0.00 70 1011.1
20260906162537 83 347 0.9 3.5 0.00 0.00 0.00 69 1011.1
20260906162436 83 347 1.7 4.3 0.00 0.00 0.00 68 1011.1
20260906162337 83 340 1.7 4.3 0.00 0.00 0.00 69 1011.1
20260906162236 83 344 0.9 4.3 0.00 0.00 0.00 71 1011.1
20260906162155 83 343 0.0 4.3 0.00 0.00 0.00 71 1011.1
20260906162033 83 343 0.0 4.3 0.00 0.00 0.00 70 1011.1
20260906161932 83 343 0.0 4.3 0.00 0.00 0.00 69 1011.1
20260906161830 83 343 0.9 4.3 0.00 0.00 0.00 69 1011.1
20260906161727 83 343 1.7 4.3 0.00 0.00 0.00 70 1011.1
20260906161658 83 343 2.6 4.3 0.00 0.00 0.00 70 1011.1
20260906161539 83 333 2.6 4.3 0.00 0.00 0.00 70 1011.1
20260906161437 82 330 1.7 2.6 0.00 0.00 0.00 69 1011.1
20260906161334 82 315 0.9 2.6 0.00 0.00 0.00 68 1011.1
20260906161233 82 312 0.0 2.6 0.00 0.00 0.00 68 1011.1
20260906161132 82 309 0.9 2.6 0.00 0.00 0.00 69 1011.1
20260906161031 82 312 0.0 2.6 0.00 0.00 0.00 69 1011.1
20260906160927 82 312 0.9 2.6 0.00 0.00 0.00 69 1011.1
20260906160830 82 312 0.0 2.6 0.00 0.00 0.00 69 1011.1
20260906160729 82 312 0.0 2.6 0.00 0.00 0.00 68 1011.1
20260906160628 82 311 0.0 2.6 0.00 0.00 0.00 68 1011.1
20260906160547 82 312 0.0 2.6 0.00 0.00 0.00 68 1011.1
20260906160505 82 311 0.0 2.6 0.00 0.00 0.00 66 1011.1
20260906160341 82 312 0.9 2.6 0.00 0.00 0.00 69 1011.1
20260906160300 82 312 1.7 2.6 0.00 0.00 0.00 70 1011.1
20260906160211 82 311 0.9 2.6 0.00 0.00 0.00 70 1011.1
20260906160026 82 309 0.0 2.6 0.00 0.00 0.00 70 1011.1
20260906155929 82 311 0.0 4.3 0.00 0.00 0.00 70 1011.1
20260906155828 82 309 1.7 4.3 0.00 0.00 0.00 70 1011.1
20260906155726 81 311 0.0 4.3 0.00 0.00 0.00 69 1011.0
20260906155625 81 311 0.0 4.3 0.00 0.00 0.00 69 1011.0
20260906155542 81 311 0.0 4.3 0.00 0.00 0.00 70 1011.0
20260906155440 81 309 0.0 4.3 0.00 0.00 0.00 70 1011.0
20260906155324 81 311 0.0 4.3 0.00 0.00 0.00 71 1011.0
20260906155242 81 311 0.9 4.3 0.00 0.00 0.00 71 1011.0
20260906155141 81 305 2.6 4.3 0.00 0.00 0.00 71 1011.0
20260906155040 81 313 0.9 4.3 0.00 0.00 0.00 71 1011.0
20260906154938 81 315 0.0 4.3 0.00 0.00 0.00 71 1011.0
20260906154839 81 313 0.0 4.3 0.00 0.00 0.00 71 1011.0
20260906154738 81 315 1.7 4.3 0.00 0.00 0.00 72 1011.0
20260906154648 81 312 2.6 4.3 0.00 0.00 0.00 72 1011.0
20260906154529 81 313 0.0 1.7 0.00 0.00 0.00 70 1011.0
20260906154427 81 315 0.9 1.7 0.00 0.00 0.00 70 1011.0
20260906154325 81 315 0.0 1.7 0.00 0.00 0.00 69 1011.0
20260906154243 81 315 0.0 1.7 0.00 0.00 0.00 70 1011.0
20260906154141 81 313 0.0 2.6 0.00 0.00 0.00 71 1011.0
20260906154040 80 315 0.0 2.6 0.00 0.00 0.00 72 1011.0
20260906153939 80 309 0.0 2.6 0.00 0.00 0.00 71 1011.0
20260906153842 80 313 0.9 3.5 0.00 0.00 0.00 71 1011.0
20260906153740 80 315 0.0 4.3 0.00 0.00 0.00 71 1011.0
20260906153638 80 315 0.0 4.3 0.00 0.00 0.00 72 1011.0
20260906153455 80 315 0.9 4.3 0.00 0.00 0.00 72 1011.0
20260906153333 80 313 0.9 4.3 0.00 0.00 0.00 72 1011.0
20260906153231 80 316 0.9 5.2 0.00 0.00 0.00 71 1011.0
20260906153203 80 315 0.9 5.2 0.00 0.00 0.00 72 1011.0
20260906153040 80 313 0.9 5.2 0.00 0.00 0.00 71 1011.0
20260906152937 80 316 2.6 5.2 0.00 0.00 0.00 74 1011.0
20260906152836 80 316 0.0 5.2 0.00 0.00 0.00 73 1011.0
20260906152733 80 316 0.0 5.2 0.00 0.00 0.00 72 1011.0
20260906152633 80 316 1.7 5.2 0.00 0.00 0.00 73 1011.0
20260906152554 80 315 0.9 5.2 0.00 0.00 0.00 74 1011.0
20260906152438 79 313 1.7 5.2 0.00 0.00 0.00 74 1011.0
20260906152336 79 313 1.7 5.2 0.00 0.00 0.00 73 1011.0
20260906152232 79 315 1.7 5.2 0.00 0.00 0.00 73 1011.0
20260906152132 79 315 1.7 5.2 0.00 0.00 0.00 73 1011.0
20260906152051 79 315 3.5 5.2 0.00 0.00 0.00 72 1011.0
20260906151927 79 316 3.5 5.2 0.00 0.00 0.00 72 1011.0
20260906151826 79 312 2.6 5.2 0.00 0.00 0.00 72 1011.0
20260906151744 79 308 2.6 5.2 0.00 0.00 0.00 74 1011.0
20260906151717 79 304 1.7 5.2 0.00 0.00 0.00 74 1011.0
20260906151554 79 301 0.9 5.2 0.00 0.00 0.00 73 1011.0
20260906151431 79 301 2.6 5.2 0.00 0.00 0.00 75 1011.0
20260906151331 79 301 2.6 5.2 0.00 0.00 0.00 74 1011.0
20260906151228 79 306 1.7 4.3 0.00 0.00 0.00 76 1010.9
20260906151127 79 302 0.9 3.5 0.00 0.00 0.00 76 1010.9
20260906151045 79 301 0.9 3.5 0.00 0.00 0.00 76 1010.9
20260906151003 79 304 0.9 2.6 0.00 0.00 0.00 76 1010.9
20260906150900 79 305 0.9 2.6 0.00 0.00 0.00 75 1010.9
20260906150742 79 302 0.9 2.6 0.00 0.00 0.00 75 1010.9
20260906150640 79 306 0.0 2.6 0.00 0.00 0.00 75 1010.9
20260906150537 79 306 0.0 2.6 0.00 0.00 0.00 75 1010.9
20260906150456 79 306 0.9 2.6 0.00 0.00 0.00 75 1010.9
20260906150353 79 306 1.7 2.6 0.00 0.00 0.00 77 1010.9
20260906150241 78 306 1.7 2.6 0.00 0.00 0.00 76 1010.9
20260906150151 78 304 0.9 2.6 0.00 0.00 0.00 76 1010.9
20260906150028 78 308 0.0 2.6 0.00 0.00 0.00 77 1010.9
20260906145929 78 306 0.0 2.6 0.00 0.00 0.00 76 1010.9
20260906145828 78 306 0.0 2.6 0.00 0.00 0.00 76 1010.9
20260906145726 78 306 0.0 4.3 0.00 0.00 0.00 76 1010.8
20260906145625 78 305 0.9 4.3 0.00 0.00 0.00 75 1010.8
20260906145543 78 305 0.0 4.3 0.00 0.00 0.00 75 1010.8
20260906145443 78 306 0.0 4.3 0.00 0.00 0.00 76 1010.8
20260906145340 78 306 0.0 5.2 0.00 0.00 0.00 75 1010.8
20260906145259 78 306 0.0 5.2 0.00 0.00 0.00 75 1010.8
20260906145139 78 306 0.9 5.2 0.00 0.00 0.00 75 1010.8
20260906145038 78 306 1.7 5.2 0.00 0.00 0.00 74 1010.8
20260906144937 77 309 2.6 5.2 0.00 0.00 0.00 74 1010.8
20260906144855 77 306 1.7 5.2 0.00 0.00 0.00 74 1010.8
20260906144743 77 305 2.6 5.2 0.00 0.00 0.00 74 1010.8
20260906144653 77 304 3.5 5.2 0.00 0.00 0.00 74 1010.8
20260906144530 77 312 3.5 5.2 0.00 0.00 0.00 75 1010.8
20260906144430 77 312 3.5 5.2 0.00 0.00 0.00 76 1010.8
20260906144333 77 306 3.5 5.2 0.00 0.00 0.00 76 1010.8
20260906144231 77 289 1.7 4.3 0.00 0.00 0.00 78 1010.8
20260906144129 77 285 1.7 4.3 0.00 0.00 0.00 78 1010.8
20260906144028 77 284 1.7 4.3 0.00 0.00 0.00 77 1010.8
20260906143929 77 284 0.0 4.3 0.00 0.00 0.00 78 1010.8
20260906143828 77 285 1.7 4.3 0.00 0.00 0.00 78 1010.8
20260906143730 77 282 0.9 4.3 0.00 0.00 0.00 78 1010.8
20260906143629 77 282 1.7 4.3 0.00 0.00 0.00 78 1010.8
20260906143528 77 281 1.7 4.3 0.00 0.00 0.00 78 1010.8
20260906143426 77 282 0.0 3.5 0.00 0.00 0.00 79 1010.8
20260906143344 77 282 0.9 3.5 0.00 0.00 0.00 79 1010.8
20260906143303 77 282 0.9 3.5 0.00 0.00 0.00 79 1010.8
20260906143214 77 282 0.0 5.2 0.00 0.00 0.00 79 1010.8
20260906143051 76 281 0.9 5.2 0.00 0.00 0.00 79 1010.8
20260906142928 76 280 0.0 5.2 0.00 0.00 0.00 79 1010.8
20260906142831 76 281 0.0 5.2 0.00 0.00 0.00 80 1010.8
20260906142729 76 280 0.9 5.2 0.00 0.00 0.00 80 1010.9
20260906142627 76 278 1.7 5.2 0.00 0.00 0.00 80 1010.9
20260906142526 76 287 0.9 5.2 0.00 0.00 0.00 81 1010.9
20260906142424 76 289 0.0 5.2 0.00 0.00 0.00 80 1010.9
20260906142342 76 288 1.7 5.2 0.00 0.00 0.00 80 1010.9
20260906142224 75 289 0.9 5.2 0.00 0.00 0.00 80 1010.9
20260906142143 75 288 1.7 5.2 0.00 0.00 0.00 81 1010.9
20260906142101 75 282 0.0 5.2 0.00 0.00 0.00 81 1010.9
20260906141939 75 281 0.0 5.2 0.00 0.00 0.00 81 1010.9
20260906141838 75 281 1.7 5.2 0.00 0.00 0.00 81 1010.9
20260906141735 75 299 1.7 5.2 0.00 0.00 0.00 81 1010.9
20260906141709 75 302 1.7 5.2 0.00 0.00 0.00 81 1010.9
20260906141527 75 299 2.6 5.2 0.00 0.00 0.00 82 1010.9
20260906141426 75 296 2.6 4.3 0.00 0.00 0.00 82 1010.9
20260906141328 75 306 1.7 4.3 0.00 0.00 0.00 82 1010.9
20260906141226 75 304 2.6 4.3 0.00 0.00 0.00 82 1011.0
20260906141124 74 305 1.7 4.3 0.00 0.00 0.00 82 1011.0
20260906141043 74 306 0.9 4.3 0.00 0.00 0.00 82 1011.0
20260906141001 74 306 1.7 4.3 0.00 0.00 0.00 82 1011.0
20260906140838 74 296 1.7 4.3 0.00 0.00 0.00 82 1011.0
20260906140757 74 274 0.9 2.6 0.00 0.00 0.00 82 1011.0
20260906140633 74 275 0.9 2.6 0.00 0.00 0.00 82 1011.0
20260906140536 74 271 1.7 2.6 0.00 0.00 0.00 82 1011.0
20260906140436 74 271 0.9 2.6 0.00 0.00 0.00 83 1011.0
20260906140334 74 271 1.7 2.6 0.00 0.00 0.00 83 1011.0
20260906140243 74 271 0.9 2.6 0.00 0.00 0.00 83 1011.0
20260906140151 74 268 0.9 2.6 0.00 0.00 0.00 84 1011.0
20260906140048 74 265 0.9 2.6 0.00 0.00 0.00 84 1011.0
20260906135945 74 265 0.9 2.6 0.00 0.00 0.00 84 1011.0
20260906135824 73 265 0.9 2.6 0.00 0.00 0.00 85 1011.0
20260906135742 73 263 0.9 2.6 0.00 0.00 0.00 85 1011.2
20260906135625 73 260 0.9 1.7 0.00 0.00 0.00 85 1011.2
20260906135543 73 258 0.0 1.7 0.00 0.00 0.00 86 1011.2
20260906135502 73 260 0.0 2.6 0.00 0.00 0.00 86 1011.2
20260906135339 73 260 0.0 2.6 0.00 0.00 0.00 86 1011.2
20260906135237 73 260 0.0 2.6 0.00 0.00 0.00 86 1011.2
20260906135155 73 258 0.9 2.6 0.00 0.00 0.00 86 1011.2
20260906135033 73 260 0.0 2.6 0.00 0.00 0.00 86 1011.2
20260906134951 73 258 0.0 6.1 0.00 0.00 0.00 86 1011.2
20260906134832 73 260 0.0 6.1 0.00 0.00 0.00 86 1011.2
20260906134731 73 260 0.9 6.1 0.00 0.00 0.00 87 1011.2
20260906134701 73 257 1.7 6.1 0.00 0.00 0.00 87 1011.2
20260906134539 73 258 0.9 6.1 0.00 0.00 0.00 87 1011.2
20260906134436 72 256 0.9 6.1 0.00 0.00 0.00 86 1011.2
20260906134335 72 257 1.7 6.1 0.00 0.00 0.00 86 1011.2
20260906134233 72 257 0.0 6.1 0.00 0.00 0.00 86 1011.4
20260906134135 72 257 1.7 6.1 0.00 0.00 0.00 86 1011.4
20260906134034 72 258 2.6 6.1 0.00 0.00 0.00 86 1011.4
20260906133934 72 267 0.0 5.2 0.00 0.00 0.00 86 1011.4
20260906133832 72 265 0.9 5.2 0.00 0.00 0.00 86 1011.4
20260906133732 72 265 1.7 5.2 0.00 0.00 0.00 86 1011.4
20260906133630 72 267 0.9 5.2 0.00 0.00 0.00 86 1011.4
20260906133529 72 267 1.7 5.2 0.00 0.00 0.00 86 1011.4
20260906133432 72 267 1.7 5.2 0.00 0.00 0.00 86 1011.4
20260906133330 72 265 2.6 5.2 0.00 0.00 0.00 86 1011.4
20260906133240 72 267 1.7 5.2 0.00 0.00 0.00 86 1011.4
20260906133150 72 267 3.5 5.2 0.00 0.00 0.00 86 1011.4
20260906133047 72 258 2.6 5.2 0.00 0.00 0.00 86 1011.4
20260906132925 72 260 2.6 5.2 0.00 0.00 0.00 86 1011.4
20260906132824 72 274 0.0 5.2 0.00 0.00 0.00 86 1011.4
20260906132725 72 270 1.7 5.2 0.00 0.00 0.00 85 1011.5
20260906132643 72 274 1.7 5.2 0.00 0.00 0.00 86 1011.5
20260906132542 72 271 2.6 5.2 0.00 0.00 0.00 86 1011.5
20260906132441 72 271 2.6 5.2 0.00 0.00 0.00 86 1011.5
20260906132358 71 272 3.5 5.2 0.00 0.00 0.00 86 1011.5
20260906132235 71 270 2.6 5.2 0.00 0.00 0.00 86 1011.5
20260906132139 71 270 1.7 5.2 0.00 0.00 0.00 86 1011.5
20260906132037 71 265 0.9 5.2 0.00 0.00 0.00 86 1011.5
20260906131939 71 263 0.9 5.2 0.00 0.00 0.00 86 1011.5
20260906131858 71 261 1.7 5.2 0.00 0.00 0.00 86 1011.5
20260906131754 71 261 0.9 5.2 0.00 0.00 0.00 86 1011.5
20260906131723 71 264 2.6 5.2 0.00 0.00 0.00 86 1011.5
20260906131600 71 263 1.7 5.2 0.00 0.00 0.00 86 1011.5
20260906131438 71 263 0.9 5.2 0.00 0.00 0.00 85 1011.5
20260906131359 71 260 0.9 5.2 0.00 0.00 0.00 85 1011.5
20260906131237 71 261 2.6 5.2 0.00 0.00 0.00 85 1011.6
20260906131135 71 258 3.5 5.2 0.00 0.00 0.00 85 1011.6
20260906131039 71 267 3.5 5.2 0.00 0.00 0.00 85 1011.6
20260906130939 71 261 3.5 5.2 0.00 0.00 0.00 85 1011.6
20260906130838 71 258 3.5 5.2 0.00 0.00 0.00 85 1011.6
20260906130735 71 271 2.6 5.2 0.00 0.00 0.00 86 1011.6
20260906130633 71 271 2.6 5.2 0.00 0.00 0.00 86 1011.6
20260906130532 71 270 3.5 5.2 0.00 0.00 0.00 86 1011.6
20260906130451 71 268 2.6 5.2 0.00 0.00 0.00 86 1011.6
20260906130332 71 265 0.9 5.2 0.00 0.00 0.00 86 1011.6
20260906130250 71 265 0.9 5.2 0.00 0.00 0.00 86 1011.6
20260906130221 71 265 1.7 5.2 0.00 0.00 0.00 86 1011.6
20260906130036 71 260 2.6 6.1 0.00 0.00 0.00 86 1011.6
20260906125934 70 264 2.6 6.1 0.00 0.00 0.00 86 1011.6
20260906125832 70 278 0.9 6.1 0.00 0.00 0.00 86 1011.6
20260906125730 70 278 1.7 6.1 0.00 0.00 0.00 87 1011.4
20260906125633 70 277 1.7 6.1 0.00 0.00 0.00 87 1011.4
20260906125551 70 280 1.7 6.1 0.00 0.00 0.00 87 1011.4
20260906125428 70 264 1.7 6.1 0.00 0.00 0.00 88 1011.4
20260906125325 70 264 2.6 6.1 0.00 0.00 0.00 88 1011.4
20260906125224 70 253 2.6 6.1 0.00 0.00 0.00 88 1011.4
20260906125143 70 261 2.6 5.2 0.00 0.00 0.00 89 1011.4
20260906125042 70 260 2.6 5.2 0.00 0.00 0.00 89 1011.4
20260906124959 70 258 1.7 5.2 0.00 0.00 0.00 89 1011.4
20260906124840 70 256 1.7 5.2 0.00 0.00 0.00 89 1011.4
20260906124739 70 254 1.7 5.2 0.00 0.00 0.00 89 1011.4
20260906124709 70 268 1.7 5.2 0.00 0.00 0.00 89 1011.4
20260906124547 70 271 0.9 5.2 0.00 0.00 0.00 89 1011.4
20260906124445 70 271 3.5 5.2 0.00 0.00 0.00 89 1011.4
20260906124403 70 272 3.5 5.2 0.00 0.00 0.00 88 1011.4
20260906124302 70 272 1.7 5.2 0.00 0.00 0.00 88 1011.5
20260906124140 70 272 0.0 5.2 0.00 0.00 0.00 88 1011.5
20260906124039 70 272 0.9 5.2 0.00 0.00 0.00 88 1011.5
20260906123941 70 272 1.7 5.2 0.00 0.00 0.00 88 1011.5
20260906123839 70 272 3.5 5.2 0.00 0.00 0.00 88 1011.5
20260906123740 70 280 1.7 4.3 0.00 0.00 0.00 88 1011.5
20260906123658 70 281 0.9 2.6 0.00 0.00 0.00 88 1011.5
20260906123535 70 282 0.9 2.6 0.00 0.00 0.00 88 1011.5
20260906123434 70 282 1.7 2.6 0.00 0.00 0.00 88 1011.5
20260906123332 70 282 0.9 2.6 0.00 0.00 0.00 88 1011.5
20260906123251 70 282 1.7 2.6 0.00 0.00 0.00 88 1011.5
20260906123204 70 284 0.9 2.6 0.00 0.00 0.00 88 1011.5
20260906123041 70 282 0.9 2.6 0.00 0.00 0.00 88 1011.5
20260906122939 69 280 0.9 2.6 0.00 0.00 0.00 87 1011.5
20260906122838 69 278 0.9 2.6 0.00 0.00 0.00 87 1011.5
20260906122737 69 281 2.6 2.6 0.00 0.00 0.00 87 1011.5
20260906122634 69 282 2.6 2.6 0.00 0.00 0.00 87 1011.5
20260906122533 69 282 1.7 2.6 0.00 0.00 0.00 87 1011.5
20260906122435 69 280 1.7 2.6 0.00 0.00 0.00 87 1011.5
20260906122334 69 284 1.7 2.6 0.00 0.00 0.00 87 1011.5
20260906122232 69 282 1.7 2.6 0.00 0.00 0.00 87 1011.5
20260906122129 69 282 1.7 2.6 0.00 0.00 0.00 87 1011.5
20260906122029 69 282 1.7 2.6 0.00 0.00 0.00 87 1011.5
20260906121925 69 284 1.7 2.6 0.00 0.00 0.00 87 1011.5
20260906121828 69 284 1.7 2.6 0.00 0.00 0.00 87 1011.5
20260906121728 69 280 1.7 2.6 0.00 0.00 0.00 87 1011.5
20260906121701 69 284 1.7 2.6 0.00 0.00 0.00 87 1011.5
20260906121558 69 282 1.7 2.6 0.00 0.00 0.00 87 1011.5
20260906121435 69 282 0.9 2.6 0.00 0.00 0.00 87 1011.5
20260906121334 69 282 1.7 2.6 0.00 0.00 0.00 87 1011.5
20260906121232 69 282 1.7 2.6 0.00 0.00 0.00 87 1011.3
20260906121131 69 282 0.9 3.5 0.00 0.00 0.00 87 1011.3
20260906121033 69 284 1.7 3.5 0.00 0.00 0.00 87 1011.3
20260906120932 69 284 1.7 3.5 0.00 0.00 0.00 87 1011.3
20260906120832 69 282 1.7 3.5 0.00 0.00 0.00 87 1011.3
20260906120730 69 282 1.7 3.5 0.00 0.00 0.00 87 1011.3
20260906120629 69 282 1.7 3.5 0.00 0.00 0.00 87 1011.3
20260906120527 69 281 1.7 3.5 0.00 0.00 0.00 87 1011.3
20260906120430 69 282 1.7 3.5 0.00 0.00 0.00 87 1011.3
20260906120328 69 282 1.7 3.5 0.00 0.00 0.00 87 1011.3
20260906120258 69 280 2.6 3.5 0.00 0.00 0.00 87 1011.3
20260906120146 69 280 1.7 3.5 0.00 0.00 0.00 87 1011.3
20260906120042 69 285 1.7 3.5 0.00 0.00 0.00 87 1011.3
20260906115941 69 294 1.7 2.6 0.00 0.00 0.00 87 1011.3
20260906115839 69 292 0.9 2.6 0.00 0.00 0.00 87 1011.3
20260906115738 69 292 0.9 2.6 0.00 0.00 0.00 87 1011.4
20260906115640 69 294 1.7 2.6 0.00 0.00 0.00 87 1011.4
20260906115539 69 294 1.7 2.6 0.00 0.00 0.00 87 1011.4
20260906115439 69 295 1.7 4.3 0.00 0.00 0.00 87 1011.4
20260906115337 69 295 0.9 4.3 0.00 0.00 0.00 87 1011.4
20260906115234 69 295 0.9 4.3 0.00 0.00 0.00 87 1011.4
20260906115131 69 299 0.9 5.2 0.00 0.00 0.00 87 1011.4
20260906115031 69 301 0.9 5.2 0.00 0.00 0.00 87 1011.4
20260906114932 69 301 0.9 5.2 0.00 0.00 0.00 87 1011.4
20260906114830 69 301 0.9 5.2 0.00 0.00 0.00 87 1011.4
20260906114729 69 301 0.9 5.2 0.00 0.00 0.00 87 1011.4
20260906114657 69 301 1.7 5.2 0.00 0.00 0.00 87 1011.4
20260906114535 69 302 1.7 5.2 0.00 0.00 0.00 87 1011.4
20260906114433 69 302 0.9 5.2 0.00 0.00 0.00 87 1011.4
20260906114331 69 304 3.5 5.2 0.00 0.00 0.00 87 1011.4
20260906114233 69 299 3.5 5.2 0.00 0.00 0.00 87 1011.3
20260906114151 69 304 2.6 5.2 0.00 0.00 0.00 87 1011.3
20260906114028 69 306 3.5 5.2 0.00 0.00 0.00 86 1011.3
20260906113927 69 11 1.7 2.6 0.00 0.00 0.00 86 1011.3
20260906113846 69 13 0.9 1.7 0.00 0.00 0.00 86 1011.3
20260906113803 70 13 0.9 2.6 0.00 0.00 0.00 86 1011.3
20260906113640 70 16 0.0 2.6 0.00 0.00 0.00 86 1011.3
20260906113542 70 14 0.0 2.6 0.00 0.00 0.00 86 1011.3
20260906113424 70 13 0.0 2.6 0.00 0.00 0.00 86 1011.3
20260906113342 70 17 0.0 2.6 0.00 0.00 0.00 86 1011.3
20260906113241 70 17 0.0 2.6 0.00 0.00 0.00 86 1011.3
20260906113212 70 17 0.9 4.3 0.00 0.00 0.00 86 1011.3
20260906113029 70 17 1.7 4.3 0.00 0.00 0.00 86 1011.3
20260906112926 70 16 1.7 4.3 0.00 0.00 0.00 86 1011.3
20260906112845 70 14 1.7 4.3 0.00 0.00 0.00 86 1011.3
20260906112741 70 17 1.7 4.3 0.00 0.00 0.00 86 1011.2
20260906112624 70 17 1.7 4.3 0.00 0.00 0.00 86 1011.2
20260906112542 70 17 2.6 4.3 0.00 0.00 0.00 86 1011.2
20260906112441 70 17 2.6 4.3 0.00 0.00 0.00 86 1011.2
20260906112339 70 17 2.6 4.3 0.00 0.00 0.00 86 1011.2
20260906112237 70 17 4.3 4.3 0.00 0.00 0.00 86 1011.2
20260906112135 70 17 3.5 4.3 0.00 0.00 0.00 86 1011.2
20260906112053 70 16 2.6 4.3 0.00 0.00 0.00 86 1011.2
20260906111930 70 14 1.7 4.3 0.00 0.00 0.00 85 1011.2
20260906111836 70 14 1.7 4.3 0.00 0.00 0.00 86 1011.2
20260906111734 70 16 1.7 4.3 0.00 0.00 0.00 85 1011.2
20260906111703 70 17 1.7 4.3 0.00 0.00 0.00 85 1011.2
20260906111601 70 17 1.7 4.3 0.00 0.00 0.00 85 1011.2
20260906111438 70 17 1.7 4.3 0.00 0.00 0.00 85 1011.2
20260906111336 70 16 2.6 4.3 0.00 0.00 0.00 85 1011.2
20260906111233 70 13 2.6 4.3 0.00 0.00 0.00 85 1010.8
20260906111131 70 16 2.6 4.3 0.00 0.00 0.00 85 1010.8
20260906111033 70 14 2.6 2.6 0.00 0.00 0.00 85 1010.8
20260906110935 70 14 1.7 2.6 0.00 0.00 0.00 85 1010.8
20260906110832 70 14 0.0 1.7 0.00 0.00 0.00 85 1010.8
20260906110733 70 14 0.0 1.7 0.00 0.00 0.00 85 1010.8
20260906110630 70 16 0.0 1.7 0.00 0.00 0.00 85 1010.8
20260906110549 70 14 0.9 1.7 0.00 0.00 0.00 85 1010.8
20260906110446 70 14 0.9 2.6 0.00 0.00 0.00 85 1010.8
20260906110404 70 14 0.0 2.6 0.00 0.00 0.00 85 1010.8
20260906110237 70 14 0.9 2.6 0.00 0.00 0.00 85 1010.8
20260906110146 70 14 0.9 2.6 0.00 0.00 0.00 85 1010.8
20260906110043 70 13 0.0 3.5 0.00 0.00 0.00 85 1010.8
20260906105941 70 14 0.0 3.5 0.00 0.00 0.00 85 1010.8
20260906105858 70 13 0.9 3.5 0.00 0.00 0.00 84 1010.8
20260906105736 70 14 0.9 3.5 0.00 0.00 0.00 84 1010.3
20260906105635 70 14 0.9 3.5 0.00 0.00 0.00 84 1010.3
20260906105533 70 14 0.9 4.3 0.00 0.00 0.00 84 1010.3
20260906105435 70 13 1.7 5.2 0.00 0.00 0.00 84 1010.3
20260906105356 70 14 1.7 5.2 0.00 0.00 0.00 84 1010.3
20260906105234 70 13 2.6 6.1 0.00 0.00 0.00 84 1010.3
20260906105132 70 16 0.9 7.0 0.00 0.00 0.00 84 1010.3
20260906105030 70 16 1.7 7.0 0.00 0.00 0.00 84 1010.3
20260906104930 70 18 0.9 7.0 0.00 0.00 0.00 84 1010.3
20260906104829 70 18 1.7 7.0 0.00 0.00 0.00 84 1010.3
20260906104742 70 20 2.6 7.8 0.00 0.00 0.00 83 1010.3
20260906104651 70 20 4.3 8.7 0.00 0.00 0.00 83 1010.3
20260906104529 70 20 5.2 8.7 0.00 0.00 0.00 83 1010.3
20260906104429 70 20 5.2 8.7 0.00 0.00 0.00 83 1010.3
20260906104347 70 17 6.1 8.7 0.00 0.00 0.00 83 1010.3
20260906104223 70 23 6.1 8.7 0.00 0.00 0.00 83 1010.2
20260906104125 70 23 6.1 8.7 0.00 0.00 0.00 83 1010.2
20260906104043 70 11 7.0 8.7 0.00 0.00 0.00 83 1010.2
20260906103945 70 10 7.0 9.6 0.00 0.00 0.00 83 1010.2
20260906103902 70 6 7.0 9.6 0.00 0.00 0.00 82 1010.2
20260906103759 70 8 7.8 9.6 0.00 0.00 0.00 83 1010.2
20260906103638 70 10 7.0 9.6 0.00 0.00 0.00 82 1010.2
20260906103535 70 17 6.1 9.6 0.00 0.00 0.00 82 1010.2
20260906103455 70 17 6.1 9.6 0.00 0.00 0.00 82 1010.2
20260906103331 70 25 6.1 9.6 0.00 0.00 0.00 82 1010.2
20260906103242 70 20 7.8 9.6 0.00 0.00 0.00 82 1010.2
20260906103153 70 14 7.8 9.6 0.00 0.00 0.00 83 1010.2
20260906103033 70 11 7.0 9.6 0.00 0.00 0.00 83 1010.2
20260906102932 70 1 5.2 8.7 0.00 0.00 0.00 83 1010.2
20260906102830 70 1 1.7 8.7 0.00 0.00 0.00 82 1010.2
20260906102730 70 360 0.9 8.7 0.00 0.00 0.00 81 1010.5
20260906102632 70 360 1.7 8.7 0.00 0.00 0.00 81 1010.5
20260906102530 70 360 2.6 8.7 0.00 0.00 0.00 81 1010.5
20260906102428 70 360 3.5 8.7 0.00 0.00 0.00 81 1010.5
20260906102330 70 360 5.2 8.7 0.00 0.00 0.00 81 1010.5
20260906102230 70 360 4.3 8.7 0.00 0.00 0.00 81 1010.5
20260906102132 70 360 2.6 7.0 0.00 0.00 0.00 81 1010.5
20260906102030 70 360 3.5 7.0 0.00 0.00 0.00 81 1010.5
20260906101948 70 360 3.5 7.0 0.00 0.00 0.00 81 1010.5
20260906101825 70 322 4.3 7.0 0.00 0.00 0.00 81 1010.5
20260906101724 70 360 3.5 7.0 0.00 0.00 0.00 81 1010.5
20260906101659 70 3 4.3 7.0 0.00 0.00 0.00 81 1010.5
20260906101538 70 1 4.3 7.0 0.00 0.00 0.00 82 1010.5
20260906101437 70 360 5.2 7.0 0.00 0.00 0.00 82 1010.5
20260906101336 70 344 5.2 7.0 0.00 0.00 0.00 82 1010.5
20260906101234 70 337 4.3 6.1 0.00 0.00 0.00 82 1010.0
20260906101132 70 325 3.5 6.1 0.00 0.00 0.00 83 1010.0
20260906101031 70 315 2.6 4.3 0.00 0.00 0.00 83 1010.0
20260906100933 70 315 1.7 2.6 0.00 0.00 0.00 83 1010.0
20260906100851 70 315 0.0 2.6 0.00 0.00 0.00 83 1010.0
20260906100752 70 313 0.0 2.6 0.00 0.00 0.00 82 1010.0
20260906100631 70 313 0.9 2.6 0.00 0.00 0.00 82 1010.0
20260906100435 70 315 1.7 4.3 0.00 0.00 0.00 82 1010.0
20260906100332 70 315 1.7 4.3 0.00 0.00 0.00 82 1010.0
20260906100231 70 315 2.6 5.2 0.00 0.00 0.00 82 1010.0
20260906100155 70 282 1.7 5.2 0.00 0.00 0.00 85 1010.0
20260906095928 70 284 1.7 7.0 0.00 0.00 0.00 86 1010.0
20260906095826 70 282 1.7 7.0 0.00 0.00 0.00 86 1010.0
20260906095724 70 281 2.6 7.0 0.00 0.00 0.00 86 1010.0
20260906095643 70 258 1.7 7.0 0.00 0.00 0.00 85 1010.0
20260906095542 70 253 1.7 7.0 0.00 0.00 0.00 85 1010.0
20260906095439 70 253 2.6 7.0 0.00 0.00 0.00 86 1010.0
20260906095342 70 253 4.3 7.0 0.00 0.00 0.00 86 1010.0
20260906095300 70 254 4.3 7.0 0.00 0.00 0.00 86 1010.0
20260906095138 70 267 5.2 7.0 0.00 0.00 0.00 86 1010.0
20260906095037 70 270 5.2 7.0 0.00 0.00 0.00 86 1010.0
20260906094934 70 272 4.3 7.0 0.00 0.00 0.00 85 1010.0
20260906094833 70 275 4.3 7.0 0.00 0.00 0.00 85 1010.0
20260906094743 70 280 3.5 7.0 0.00 0.00 0.00 85 1010.0
20260906094653 70 280 1.7 7.0 0.00 0.00 0.00 85 1010.0
20260906094535 70 280 2.6 7.0 0.00 0.00 0.00 85 1010.0
20260906094433 70 281 2.6 7.0 0.00 0.00 0.00 85 1010.0
20260906094332 70 288 3.5 7.0 0.00 0.00 0.00 85 1010.0
20260906094231 70 287 4.3 7.0 0.00 0.00 0.00 85 1009.9
20260906094130 70 265 2.6 7.0 0.00 0.00 0.00 86 1009.9
20260906094027 70 148 2.6 7.0 0.00 0.00 0.00 88 1009.9
20260906093947 70 148 3.5 7.0 0.00 0.00 0.00 88 1009.9
20260906093827 70 143 4.3 7.0 0.00 0.00 0.00 88 1009.9
20260906093725 70 141 3.5 7.0 0.00 0.00 0.00 88 1009.9
20260906093624 70 141 3.5 7.0 0.00 0.00 0.00 88 1009.9
20260906093541 70 143 4.3 7.0 0.00 0.00 0.00 88 1009.9
20260906093440 70 133 5.2 7.0 0.00 0.00 0.00 88 1009.9
20260906093339 70 138 6.1 7.0 0.00 0.00 0.00 88 1009.9
20260906093238 70 133 5.2 7.0 0.00 0.00 0.00 88 1009.9
20260906093212 70 134 4.3 7.0 0.00 0.00 0.00 88 1009.9
20260906093028 69 137 5.2 7.0 0.00 0.00 0.00 88 1009.9
20260906092926 69 131 4.3 7.0 0.00 0.00 0.00 88 1009.9
20260906092824 69 140 4.3 7.0 0.00 0.00 0.00 88 1009.9
20260906092742 69 134 4.3 7.0 0.00 0.00 0.00 88 1010.1
20260906092700 69 134 5.2 7.0 0.00 0.00 0.00 88 1010.1
20260906092557 69 134 5.2 7.0 0.00 0.00 0.00 88 1010.1
20260906092434 69 120 5.2 7.0 0.00 0.00 0.00 88 1010.1
20260906092336 69 128 3.5 6.1 0.00 0.00 0.00 88 1010.1
20260906092255 69 143 3.5 6.1 0.00 0.00 0.00 88 1010.1
20260906092132 69 144 3.5 7.0 0.00 0.00 0.00 88 1010.1
20260906092050 69 136 4.3 8.7 0.00 0.00 0.00 87 1010.1
20260906091928 69 134 4.3 9.6 0.00 0.00 0.00 88 1010.1
20260906091829 69 133 2.6 9.6 0.00 0.00 0.00 88 1010.1
20260906091737 69 130 4.3 9.6 0.00 0.00 0.00 89 1010.1
20260906091646 69 128 4.3 10.4 0.00 0.00 0.00 89 1010.1
20260906091526 69 128 5.2 10.4 0.00 0.00 0.00 89 1010.1
20260906091445 69 133 5.2 10.4 0.00 0.00 0.00 89 1010.1
20260906091404 69 126 5.2 10.4 0.00 0.00 0.00 89 1010.1
20260906091240 69 116 5.2 10.4 0.00 0.00 0.00 89 1010.3
20260906091139 69 120 7.0 10.4 0.00 0.00 0.00 89 1010.3
20260906091037 69 114 7.8 10.4 0.00 0.00 0.00 89 1010.3
20260906090957 69 104 8.7 10.4 0.00 0.00 0.00 89 1010.3
20260906090835 69 120 8.7 10.4 0.00 0.00 0.00 89 1010.3
20260906090733 69 112 8.7 10.4 0.00 0.00 0.00 89 1010.3
20260906090636 69 106 7.8 11.3 0.00 0.00 0.00 89 1010.3
20260906090534 69 112 8.7 11.3 0.00 0.00 0.00 89 1010.3
20260906090453 69 113 6.1 11.3 0.00 0.00 0.00 89 1010.3
20260906090331 69 121 5.2 11.3 0.00 0.00 0.00 89 1010.3
20260906090241 69 110 7.0 11.3 0.00 0.00 0.00 89 1010.3
20260906090152 69 123 7.0 11.3 0.00 0.00 0.00 88 1010.3
20260906090030 68 110 9.6 11.3 0.00 0.00 0.00 88 1010.3
20260906085948 68 104 8.7 14.8 0.00 0.00 0.00 88 1010.3
20260906085830 68 100 9.6 14.8 0.00 0.00 0.00 87 1010.3
20260906085728 68 96 7.8 14.8 0.00 0.00 0.00 87 1010.1
20260906085626 68 92 8.7 14.8 0.00 0.00 0.00 88 1010.1
20260906085525 68 86 9.6 14.8 0.00 0.00 0.00 88 1010.1
20260906085443 68 86 8.7 15.6 0.00 0.00 0.00 88 1010.1
20260906085341 68 88 8.7 15.6 0.00 0.00 0.00 88 1010.1
20260906085240 68 68 7.8 15.6 0.00 0.00 0.00 89 1010.1
20260906085203 68 96 10.4 15.6 0.00 0.00 0.00 89 1010.1
20260906085039 68 80 11.3 15.6 0.00 0.00 0.00 89 1010.1
20260906084937 68 90 11.3 16.5 0.00 0.00 0.00 90 1010.1
20260906084856 68 89 9.6 16.5 0.00 0.00 0.00 90 1010.1
20260906084732 68 104 8.7 16.5 0.00 0.00 0.00 90 1010.1
20260906084701 68 85 11.3 16.5 0.00 0.00 0.00 90 1010.1
20260906084538 68 93 11.3 16.5 0.00 0.00 0.00 90 1010.1
20260906084438 68 92 10.4 16.5 0.00 0.00 0.00 91 1010.1
20260906084340 68 95 11.3 16.5 0.00 0.00 0.00 91 1010.1
20260906084238 68 78 9.6 16.5 0.00 0.00 0.00 91 1009.8
20260906084157 68 83 12.2 16.5 0.00 0.00 0.00 91 1009.8
20260906084034 68 82 12.2 15.6 0.00 0.00 0.00 92 1009.8
20260906083933 68 147 11.3 14.8 0.00 0.00 0.00 92 1009.8
20260906083830 68 110 11.3 14.8 0.00 0.00 0.00 92 1009.8
20260906083728 68 95 11.3 14.8 0.00 0.00 0.00 92 1009.8
20260906083626 68 110 10.4 13.9 0.00 0.00 0.00 92 1009.8
20260906083528 68 76 10.4 13.9 0.00 0.00 0.00 92 1009.8
20260906083427 68 110 11.3 15.6 0.00 0.00 0.00 92 1009.8
20260906083325 68 119 8.7 17.4 0.00 0.00 0.00 92 1009.8
20260906083233 68 112 7.0 17.4 0.00 0.00 0.00 92 1009.8
20260906083143 68 134 7.8 20.9 0.00 0.00 0.00 92 1009.8
20260906083043 68 95 7.8 22.6 0.00 0.00 0.00 92 1009.8
20260906082941 68 130 7.0 22.6 0.00 0.00 0.00 92 1009.8
20260906082900 68 121 8.7 22.6 0.00 0.00 0.00 92 1009.8
20260906082741 68 99 7.0 22.6 0.00 0.00 0.00 92 1010.0
20260906082639 68 145 8.7 22.6 0.00 0.00 0.00 92 1010.0
20260906082538 68 80 11.3 22.6 0.00 0.00 0.00 92 1010.0
20260906082436 68 124 12.2 22.6 0.00 0.00 0.00 92 1010.0
20260906082333 68 97 13.9 22.6 0.00 0.00 0.00 92 1010.0
20260906082232 68 90 15.6 22.6 0.00 0.00 0.00 92 1010.0
20260906082150 68 83 13.9 20.9 0.00 0.00 0.00 92 1010.0
20260906082052 68 121 17.4 20.9 0.00 0.00 0.00 92 1010.0
20260906081949 68 85 13.0 20.9 0.00 0.00 0.00 92 1010.0
20260906081827 68 90 13.9 20.9 0.00 0.00 0.00 92 1010.0
20260906081725 68 82 13.9 20.9 0.00 0.00 0.00 92 1010.0
20260906081655 68 93 12.2 20.9 0.00 0.00 0.00 92 1010.0
20260906081552 68 110 14.8 20.9 0.00 0.00 0.00 92 1010.0
20260906081451 68 80 14.8 20.9 0.00 0.00 0.00 92 1010.0
20260906081327 68 93 13.0 21.7 0.00 0.00 0.00 92 1010.0
20260906081226 68 97 13.0 21.7 0.00 0.00 0.00 92 1010.5
20260906081128 68 75 13.9 21.7 0.00 0.00 0.00 92 1010.5
20260906081028 68 121 12.2 21.7 0.00 0.00 0.00 92 1010.5
20260906080926 68 65 11.3 23.5 0.00 0.00 0.00 92 1010.5
20260906080824 68 93 14.8 25.2 0.00 0.00 0.00 92 1010.5
20260906080723 68 79 14.8 25.2 0.00 0.00 0.00 92 1010.5
20260906080625 68 73 15.6 25.2 0.00 0.00 0.00 92 1010.5
20260906080527 68 83 16.5 25.2 0.00 0.00 0.00 92 1010.5
20260906080430 68 82 15.6 25.2 0.00 0.00 0.00 92 1010.5
20260906080327 68 48 13.0 25.2 0.00 0.00 0.00 92 1010.5
20260906080226 68 71 19.1 25.2 0.00 0.00 0.00 92 1010.5
20260906080155 69 88 18.2 25.2 0.00 0.00 0.00 92 1010.5
20260906080032 69 47 18.2 25.2 0.00 0.00 0.00 92 1010.5
20260906075930 69 75 19.1 25.2 0.00 0.00 0.00 92 1010.5
20260906075828 69 88 18.2 23.5 0.00 0.00 0.00 92 1010.5
20260906075750 69 76 18.2 23.5 0.00 0.00 0.00 92 1011.1
20260906075629 69 73 18.2 23.5 0.00 0.00 0.00 92 1011.1
20260906075547 69 82 17.4 23.5 0.00 0.00 0.00 92 1011.1
20260906075445 69 89 18.2 23.5 0.00 0.00 0.00 92 1011.1
20260906075403 69 83 17.4 23.5 0.00 0.00 0.00 92 1011.1
20260906075242 69 62 17.4 23.5 0.00 0.00 0.00 92 1011.1
20260906075140 69 62 16.5 23.5 0.00 0.00 0.00 92 1011.1
20260906075038 69 68 15.6 22.6 0.00 0.00 0.00 92 1011.1
20260906074940 69 69 15.6 22.6 0.00 0.00 0.00 92 1011.1
20260906074838 69 69 14.8 22.6 0.00 0.00 0.00 92 1011.1
20260906074757 69 52 13.9 22.6 0.00 0.00 0.00 92 1011.1
20260906074707 69 48 11.3 22.6 0.00 0.00 0.00 92 1011.1
20260906074543 69 44 14.8 22.6 0.00 0.00 0.00 92 1011.1
20260906074441 69 55 14.8 22.6 0.00 0.00 0.00 92 1011.1
20260906074338 69 68 13.9 21.7 0.00 0.00 0.00 92 1011.1
20260906074236 69 44 13.9 21.7 0.00 0.00 0.00 92 1011.5
20260906074134 69 42 13.9 21.7 0.00 0.00 0.00 92 1011.5
20260906074037 69 71 13.9 21.7 0.00 0.00 0.00 92 1011.5
20260906073936 69 42 13.0 21.7 0.00 0.00 0.00 92 1011.5
20260906073836 69 66 14.8 21.7 0.00 0.00 0.00 92 1011.5
20260906073734 70 52 13.0 21.7 0.00 0.00 0.00 92 1011.5
20260906073633 70 37 16.5 21.7 0.00 0.00 0.00 92 1011.5
20260906073532 70 51 16.5 21.7 0.00 0.00 0.00 91 1011.5
20260906073450 70 27 13.0 20.9 0.00 0.00 0.00 91 1011.5
20260906073332 70 64 13.0 22.6 0.00 0.00 0.00 91 1011.5
20260906073250 70 41 13.0 22.6 0.00 0.00 0.00 91 1011.5
20260906073220 70 42 13.0 22.6 0.00 0.00 0.00 91 1011.5
20260906073036 70 55 12.2 22.6 0.00 0.00 0.00 91 1011.5
20260906072935 70 62 13.9 22.6 0.00 0.00 0.00 91 1011.5
20260906072837 70 69 11.3 22.6 0.00 0.00 0.00 91 1011.5
20260906072735 70 52 13.9 22.6 0.00 0.00 0.00 91 1011.8
20260906072634 71 56 14.8 22.6 0.00 0.00 0.00 91 1011.8
20260906072556 71 42 13.0 22.6 0.00 0.00 0.00 91 1011.8
20260906072434 71 59 13.0 21.7 0.00 0.00 0.00 91 1011.8
20260906072332 71 62 14.8 21.7 0.00 0.00 0.00 91 1011.8
20260906072152 71 85 13.0 0.0 0.00 0.00 0.00 91 1011.8
20260906072044 71 42 13.0 0.0 0.00 0.00 0.00 91 1011.8
20260906072001 71 45 14.8 21.7 0.00 0.00 0.00 91 1011.8
20260906071921 71 38 17.4 21.7 0.00 0.00 0.00 91 1011.8
20260905232032 87 96 5.2 0.0 0.00 0.00 0.00 55 1009.0
20260905231933 87 93 5.2 0.0 0.00 0.00 0.00 55 1009.0
20260905231854 87 93 5.2 0.0 0.00 0.00 0.00 54 1009.0
20260905231728 87 134 5.2 0.0 0.00 0.00 0.00 55 1009.0
20260905231641 87 116 4.3 0.0 0.00 0.00 0.00 55 1009.0
20260905231526 87 106 4.3 0.0 0.00 0.00 0.00 55 1009.0
20260905231426 87 117 4.3 0.0 0.00 0.00 0.00 55 1009.0
20260905231327 87 116 4.3 0.0 0.00 0.00 0.00 55 1009.0
20260905231228 87 121 4.3 0.0 0.00 0.00 0.00 55 1009.9
20260905231149 87 123 4.3 0.0 0.00 0.00 0.00 54 1009.9
20260905231033 87 127 4.3 0.0 0.00 0.00 0.00 54 1009.9
20260905230935 87 126 5.2 9.6 0.00 0.00 0.00 53 1009.9
20260905230834 88 131 3.5 9.6 0.00 0.00 0.00 52 1009.9
20260905230752 88 131 4.3 9.6 0.00 0.00 0.00 53 1009.9
20260905230630 88 131 3.5 9.6 0.00 0.00 0.00 53 1009.9
20260905230532 88 126 6.1 9.6 0.00 0.00 0.00 53 1009.9
20260905230431 88 127 4.3 12.2 0.00 0.00 0.00 53 1009.9
20260905230350 88 131 5.2 12.2 0.00 0.00 0.00 53 1009.9
20260905230243 88 130 5.2 12.2 0.00 0.00 0.00 52 1009.9
20260905230154 88 119 6.1 12.2 0.00 0.00 0.00 52 1009.9
20260905230031 89 110 7.0 12.2 0.00 0.00 0.00 51 1009.9
20260905225929 89 114 7.0 12.2 0.00 0.00 0.00 52 1009.9
20260905225849 89 116 6.1 12.2 0.00 0.00 0.00 52 1009.9
20260905225728 89 113 6.1 12.2 0.00 0.00 0.00 51 1009.7
20260905225628 89 112 8.7 12.2 0.00 0.00 0.00 51 1009.7
20260905225527 89 114 7.0 11.3 0.00 0.00 0.00 51 1009.7
20260905225428 90 82 6.1 9.6 0.00 0.00 0.00 51 1009.7
20260905225328 90 88 6.1 9.6 0.00 0.00 0.00 53 1009.7
20260905225227 90 104 6.1 8.7 0.00 0.00 0.00 52 1009.7
20260905225125 90 113 4.3 8.7 0.00 0.00 0.00 52 1009.7
20260905225024 90 109 1.7 8.7 0.00 0.00 0.00 51 1009.7
20260905224943 90 150 2.6 8.7 0.00 0.00 0.00 51 1009.7
20260905224825 90 148 3.5 8.7 0.00 0.00 0.00 51 1009.7
20260905224745 90 145 5.2 8.7 0.00 0.00 0.00 50 1009.7
20260905224655 90 112 6.1 8.7 0.00 0.00 0.00 52 1009.7
20260905224532 90 145 4.3 7.8 0.00 0.00 0.00 51 1009.7
20260905224430 90 112 5.2 7.0 0.00 0.00 0.00 54 1009.7
20260905224330 90 32 2.6 4.3 0.00 0.00 0.00 53 1009.7
20260905224229 90 30 0.9 2.6 0.00 0.00 0.00 52 1009.9
20260905224149 90 24 0.9 2.6 0.00 0.00 0.00 50 1009.9